Temp
-17 -17 -17 -17 -16 -16 -16 -15 -15 -14 -14 -14 -14 -13 -13 -14 -14 -14 -15 -14 -14 -14 -14 -13 -13 -13 -13 -14 -15 -15 -15 -15 -15 -15 -15 -16 -16 -16 -16 -16 -16 -16 -16
-18 -17 -17 -16 -16 -16 -16 -15 -15 -15 -15 -15 -15 -14 -14 -14 -14 -15 -15 -14 -14 -14 -14 -14 -13 -13 -14 -14 -15 -15 -15 -15 -15 -15 -16 -16 -16 -16 -16 -16 -16 -16 -17
-18 -18 -18 -15 -16 -16 -16 -16 -15 -15 -15 -14 -15 -14 -14 -13 -14 -15 -15 -14 -14 -14 -14 -13 -13 -13 -14 -14 -15 -15 -15 -15 -15 -15 -16 -16 -16 -16 -16 -16 -17 -17 -17
-19 -19 -18 -17 -16 -16 -16 -16 -15 -16 -15 -15 -15 -14 -14 -14 -15 -15 -15 -15 -14 -14 -14 -14 -14 -14 -14 -15 -15 -15 -15 -15 -15 -16 -16 -16 -16 -16 -17 -17 -17 -17 -18
-19 -19 -18 -17 -16 -16 -16 -16 -16 -16 -15 -15 -14 -14 -14 -14 -15 -14 -15 -15 -14 -14 -14 -14 -14 -14 -15 -15 -15 -15 -15 -15 -15 -16 -16 -16 -17 -17 -17 -17 -18 -18 -19
-19 -19 -19 -19 -17 -17 -17 -16 -15 -15 -15 -15 -14 -14 -14 -15 -15 -15 -15 -15 -14 -14 -14 -14 -14 -15 -15 -15 -15 -15 -15 -15 -16 -16 -16 -17 -17 -17 -18 -18 -19 -20 -20
-19 -19 -19 -19 -18 -17 -16 -16 -15 -15 -15 -15 -15 -14 -15 -15 -15 -14 -15 -14 -14 -14 -14 -14 -14 -15 -15 -15 -15 -15 -15 -16 -16 -16 -16 -16 -17 -17 -18 -19 -21 -21 -22
-19 -19 -19 -19 -18 -17 -17 -16 -15 -15 -15 -15 -15 -15 -15 -15 -14 -14 -14 -14 -14 -14 -14 -14 -15 -15 -15 -15 -15 -15 -16 -16 -16 -16 -16 -17 -17 -18 -19 -21 -22 -22 -22
-20 -19 -19 -18 -18 -17 -17 -16 -16 -15 -15 -15 -15 -15 -15 -15 -14 -14 -14 -14 -14 -14 -15 -15 -15 -15 -15 -15 -15 -16 -15 -16 -16 -16 -16 -17 -17 -18 -20 -22 -22 -22 -22
-19 -19 -19 -18 -18 -17 -17 -16 -16 -16 -15 -15 -15 -15 -15 -15 -15 -14 -14 -14 -14 -15 -15 -15 -15 -15 -15 -15 -15 -15 -16 -16 -16 -16 -16 -17 -18 -20 -21 -22 -22 -22 -23
-19 -19 -19 -19 -18 -16 -17 -16 -16 -16 -15 -16 -16 -15 -15 -15 -15 -14 -14 -14 -15 -15 -15 -15 -15 -15 -15 -15 -15 -16 -16 -16 -16 -16 -17 -18 -19 -21 -22 -22 -23 -23 -24
-19 -19 -18 -18 -18 -18 -17 -17 -17 -16 -16 -16 -16 -15 -15 -15 -15 -14 -15 -15 -15 -15 -15 -15 -16 -15 -15 -15 -16 -16 -16 -16 -16 -16 -17 -18 -20 -21 -22 -22 -23 -24 -25
-19 -19 -18 -19 -18 -17 -17 -17 -16 -16 -16 -16 -16 -15 -15 -15 -15 -15 -15 -15 -15 -15 -16 -16 -15 -15 -15 -16 -16 -16 -16 -16 -16 -17 -17 -18 -20 -22 -22 -23 -24 -24 -25
-19 -19 -19 -18 -17 -17 -17 -17 -16 -16 -17 -16 -15 -15 -15 -15 -15 -15 -15 -15 -15 -16 -16 -16 -15 -15 -15 -16 -16 -16 -16 -16 -17 -17 -18 -19 -20 -22 -22 -23 -24 -24 -24
-19 -19 -18 -17 -18 -17 -17 -17 -16 -17 -16 -16 -15 -15 -15 -15 -15 -15 -15 -15 -16 -16 -16 -15 -15 -15 -15 -16 -16 -16 -16 -17 -17 -17 -18 -19 -20 -22 -22 -23 -24 -24 -25
-18 -18 -17 -17 -17 -17 -17 -16 -17 -16 -16 -16 -16 -16 -15 -15 -15 -15 -15 -16 -16 -16 -16 -15 -15 -15 -16 -16 -16 -16 -16 -17 -17 -18 -18 -19 -20 -21 -22 -23 -23 -24 -25
-18 -18 -18 -18 -17 -17 -17 -18 -16 -16 -16 -16 -16 -15 -15 -15 -15 -15 -15 -16 -16 -16 -16 -16 -15 -16 -16 -16 -16 -16 -17 -17 -17 -18 -18 -19 -20 -21 -22 -22 -23 -24 -25
-18 -18 -18 -17 -17 -17 -17 -17 -17 -16 -16 -16 -16 -15 -15 -15 -15 -15 -16 -16 -16 -16 -16 -15 -16 -16 -16 -16 -16 -16 -17 -17 -18 -18 -18 -19 -20 -21 -22 -22 -23 -24 -24
-18 -18 -17 -17 -18 -18 -17 -17 -17 -16 -16 -16 -17 -15 -15 -15 -15 -16 -16 -16 -16 -16 -16 -16 -16 -16 -16 -16 -16 -17 -17 -18 -18 -18 -19 -19 -20 -20 -21 -22 -23 -23 -24
-18 -18 -17 -17 -18 -17 -17 -16 -16 -16 -16 -17 -17 -16 -16 -16 -15 -16 -16 -16 -16 -16 -16 -16 -16 -16 -16 -16 -17 -17 -17 -18 -18 -18 -19 -19 -19 -20 -21 -22 -22 -23 -24
-18 -18 -17 -18 -18 -17 -17 -17 -17 -17 -16 -17 -16 -16 -16 -16 -15 -16 -16 -16 -16 -16 -16 -16 -16 -16 -16 -16 -17 -17 -17 -18 -18 -19 -19 -19 -20 -20 -21 -21 -22 -22 -23
-18 -18 -18 -17 -17 -17 -16 -16 -16 -16 -16 -16 -16 -16 -16 -16 -16 -16 -16 -16 -16 -16 -16 -16 -16 -16 -16 -17 -17 -17 -18 -18 -18 -19 -19 -19 -20 -20 -20 -21 -22 -22 -23
-18 -18 -17 -17 -17 -17 -17 -16 -17 -17 -16 -16 -16 -16 -16 -16 -16 -16 -16 -16 -16 -16 -16 -16 -16 -16 -16 -17 -17 -17 -18 -18 -18 -19 -19 -19 -20 -20 -20 -21 -21 -22 -22
-18 -18 -17 -17 -17 -17 -17 -17 -17 -17 -16 -16 -16 -16 -16 -16 -16 -16 -16 -16 -16 -16 -16 -16 -16 -16 -16 -17 -17 -17 -18 -18 -18 -19 -19 -20 -20 -20 -20 -21 -21 -21 -22
-18 -17 -17 -17 -17 -17 -17 -17 -17 -17 -17 -16 -17 -16 -16 -16 -16 -16 -16 -16 -16 -16 -16 -16 -16 -16 -16 -17 -17 -17 -18 -18 -18 -19 -19 -19 -20 -20 -20 -21 -21 -21 -21
-17 -17 -17 -17 -18 -18 -17 -17 -17 -17 -17 -17 -17 -17 -16 -16 -16 -16 -16 -16 -16 -16 -16 -16 -16 -16 -16 -17 -17 -17 -18 -18 -18 -18 -19 -19 -20 -20 -20 -21 -21 -21 -21
Height
5637 5642 5644 5649 5652 5656 5658 5660 5663 5670 5675 5676 5683 5681 5687 5693 5699 5705 5709 5712 5716 5717 5717 5717 5717 5716 5717 5717 5717 5717 5717 5716 5714 5712 5710 5707 5705 5703 5701 5698 5696 5693 5690
5627 5631 5633 5639 5645 5649 5653 5657 5658 5664 5668 5673 5675 5680 5685 5691 5695 5700 5705 5708 5712 5712 5713 5713 5712 5713 5714 5714 5713 5714 5714 5712 5711 5709 5705 5702 5700 5698 5696 5693 5689 5685 5682
5617 5622 5626 5630 5636 5644 5649 5652 5654 5659 5663 5666 5671 5674 5682 5686 5692 5696 5701 5704 5708 5707 5708 5709 5710 5710 5712 5712 5711 5712 5711 5709 5707 5705 5702 5699 5696 5693 5690 5687 5683 5679 5674
5609 5615 5616 5611 5629 5638 5643 5648 5651 5655 5660 5663 5665 5671 5680 5684 5689 5692 5698 5700 5703 5703 5705 5705 5707 5709 5710 5709 5710 5711 5709 5707 5705 5702 5699 5696 5692 5688 5685 5680 5675 5670 5665
5605 5611 5613 5614 5624 5630 5638 5644 5648 5653 5656 5658 5663 5670 5677 5682 5686 5690 5695 5696 5698 5700 5701 5703 5705 5706 5707 5708 5710 5708 5707 5705 5702 5699 5696 5692 5687 5682 5677 5672 5666 5657 5651
5599 5605 5609 5611 5616 5623 5633 5641 5645 5649 5653 5658 5662 5668 5675 5680 5684 5688 5692 5693 5694 5697 5700 5702 5704 5705 5706 5707 5708 5707 5705 5702 5699 5696 5692 5687 5681 5675 5667 5660 5653 5647 5639
5591 5600 5606 5613 5617 5621 5629 5637 5642 5645 5650 5653 5660 5667 5672 5679 5682 5687 5688 5689 5693 5696 5699 5702 5703 5704 5706 5707 5706 5705 5703 5700 5697 5692 5687 5681 5674 5667 5658 5649 5640 5631 5625
5585 5595 5603 5610 5613 5618 5626 5633 5640 5644 5648 5654 5660 5666 5672 5676 5681 5685 5685 5688 5693 5695 5698 5701 5703 5704 5706 5706 5706 5704 5701 5697 5693 5688 5682 5675 5667 5658 5648 5639 5631 5622 5611
5578 5590 5599 5605 5611 5616 5624 5631 5637 5642 5645 5652 5658 5664 5670 5675 5679 5681 5684 5688 5692 5696 5698 5700 5702 5704 5706 5705 5704 5702 5699 5695 5689 5683 5677 5669 5660 5650 5640 5630 5621 5613 5603
5572 5585 5594 5603 5608 5615 5620 5628 5634 5639 5643 5650 5656 5663 5668 5674 5677 5679 5684 5688 5693 5696 5697 5700 5703 5705 5705 5704 5703 5700 5696 5692 5686 5680 5672 5663 5653 5642 5632 5622 5612 5600 5588
5567 5580 5590 5599 5605 5612 5619 5624 5629 5636 5642 5648 5655 5661 5667 5672 5675 5680 5685 5688 5694 5696 5699 5702 5704 5705 5704 5703 5702 5699 5695 5690 5684 5677 5668 5658 5648 5637 5626 5614 5601 5588 5575
5564 5576 5587 5595 5602 5607 5616 5622 5627 5634 5641 5647 5655 5660 5665 5670 5676 5680 5685 5690 5694 5697 5700 5703 5704 5705 5704 5703 5701 5698 5694 5688 5682 5674 5665 5655 5644 5631 5620 5607 5593 5578 5563
5559 5571 5583 5592 5602 5609 5615 5621 5627 5633 5640 5648 5653 5659 5666 5671 5676 5681 5686 5690 5695 5698 5701 5704 5705 5704 5703 5702 5700 5697 5693 5687 5680 5672 5663 5652 5640 5629 5616 5602 5587 5572 5559
5555 5570 5582 5591 5599 5607 5614 5619 5626 5632 5641 5648 5655 5660 5666 5671 5677 5682 5688 5692 5696 5699 5703 5705 5705 5704 5704 5702 5700 5697 5692 5686 5679 5671 5662 5650 5638 5626 5613 5599 5584 5568 5556
5555 5570 5580 5590 5598 5606 5612 5618 5625 5634 5641 5649 5655 5660 5665 5672 5678 5683 5688 5693 5697 5701 5704 5705 5705 5705 5704 5703 5700 5697 5691 5685 5679 5671 5661 5650 5638 5626 5613 5598 5582 5567 5555
5558 5569 5581 5589 5598 5607 5612 5618 5625 5634 5641 5647 5653 5659 5667 5673 5679 5685 5690 5695 5698 5702 5705 5705 5705 5705 5704 5703 5700 5696 5691 5685 5678 5671 5661 5650 5639 5627 5614 5599 5584 5570 5558
5560 5571 5581 5590 5598 5606 5611 5620 5627 5633 5639 5646 5653 5660 5666 5674 5680 5685 5691 5696 5700 5703 5705 5706 5706 5706 5705 5703 5701 5696 5691 5685 5679 5671 5662 5652 5641 5629 5616 5603 5589 5575 5562
5566 5574 5583 5591 5598 5605 5613 5622 5629 5637 5642 5649 5655 5661 5668 5674 5681 5687 5693 5697 5701 5704 5706 5707 5707 5707 5706 5704 5701 5696 5691 5686 5679 5672 5664 5654 5643 5632 5620 5608 5594 5582 5570
5567 5575 5584 5591 5598 5606 5615 5623 5630 5637 5643 5650 5659 5666 5671 5678 5684 5689 5694 5698 5702 5705 5707 5708 5708 5708 5707 5704 5701 5697 5692 5687 5681 5673 5666 5657 5647 5636 5625 5614 5602 5590 5578
5569 5578 5586 5592 5599 5607 5616 5624 5631 5638 5645 5650 5658 5666 5675 5680 5686 5692 5696 5699 5703 5706 5708 5709 5710 5709 5707 5705 5702 5697 5693 5688 5682 5676 5669 5661 5651 5641 5631 5620 5609 5598 5587
5573 5581 5588 5594 5603 5611 5618 5625 5632 5639 5644 5650 5658 5665 5673 5681 5688 5693 5697 5701 5705 5708 5709 5710 5711 5710 5708 5706 5702 5698 5694 5689 5684 5678 5671 5664 5656 5647 5637 5627 5617 5607 5597
5576 5582 5590 5597 5606 5612 5618 5625 5632 5639 5645 5652 5660 5667 5675 5682 5688 5694 5699 5703 5706 5709 5711 5711 5712 5711 5709 5706 5703 5699 5695 5691 5686 5680 5675 5668 5661 5652 5644 5634 5625 5615 5606
5578 5585 5592 5599 5607 5615 5621 5627 5635 5642 5649 5655 5661 5669 5677 5683 5690 5695 5700 5704 5708 5710 5712 5713 5713 5712 5710 5707 5704 5701 5697 5693 5688 5683 5678 5672 5665 5658 5650 5641 5633 5624 5615
5579 5587 5594 5602 5610 5618 5624 5631 5639 5645 5651 5657 5664 5670 5677 5684 5690 5696 5701 5705 5708 5711 5713 5713 5714 5712 5711 5708 5705 5702 5699 5695 5690 5686 5681 5675 5669 5662 5656 5648 5641 5633 5624
5582 5591 5597 5604 5611 5618 5625 5633 5641 5647 5653 5659 5666 5673 5679 5685 5691 5696 5701 5706 5709 5712 5714 5715 5715 5714 5712 5710 5707 5704 5701 5697 5693 5689 5684 5679 5673 5667 5661 5655 5648 5641 5633
5584 5591 5599 5606 5614 5621 5628 5636 5642 5648 5654 5660 5667 5674 5680 5686 5691 5697 5702 5706 5709 5712 5715 5715 5716 5715 5713 5711 5709 5706 5703 5699 5696 5692 5688 5683 5678 5672 5666 5660 5654 5648 5641
Wind_Speed
34 29 27 34 31 30 31 26 26 32 27 33 14 21 19 25 27 31 28 18 16 20 18 18 17 14 12 11 13 13 14 14 17 18 21 22 22 24 26 28 28 29 29
35 26 21 25 24 28 23 23 18 20 19 15 19 34 25 32 32 31 20 12 17 17 15 16 14 11 9 9 10 12 15 16 18 22 20 20 20 21 22 25 26 28 29
37 36 36 16 31 30 23 20 15 13 14 13 15 21 23 18 16 24 14 14 18 13 13 13 11 9 8 6 8 12 14 14 14 15 17 18 20 20 21 23 26 29 30
41 33 34 16 22 27 25 22 14 7 14 15 14 22 24 21 18 19 16 15 13 11 12 10 9 7 5 5 8 9 8 10 11 13 16 18 21 24 27 30 33 35 37
40 35 32 32 22 33 28 15 9 9 9 14 19 29 25 25 19 12 15 12 10 10 9 8 6 4 2 3 3 6 7 10 12 15 19 23 25 29 34 36 38 41 42
38 36 33 27 17 26 21 18 15 8 9 19 21 27 22 20 16 14 15 10 8 8 7 6 6 3 5 4 6 7 8 12 15 19 23 28 31 35 39 42 43 41 42
37 34 31 28 25 24 21 20 14 8 13 23 27 22 20 19 14 15 12 8 6 6 9 8 6 9 9 7 7 7 10 14 19 23 27 32 35 39 42 44 42 42 41
37 35 27 29 21 24 20 17 16 9 21 27 24 21 23 17 16 14 11 8 8 10 10 11 12 13 10 7 6 10 14 18 22 26 31 35 39 42 44 41 38 40 44
40 34 27 26 25 20 17 17 15 12 20 26 25 26 21 17 15 14 11 9 11 12 15 14 15 12 8 6 9 12 17 20 25 31 35 39 41 43 43 41 41 43 46
43 38 29 23 26 22 18 19 17 20 23 28 27 25 18 17 16 14 12 14 14 17 18 18 15 10 7 7 10 14 19 24 30 34 38 41 43 44 42 42 45 49 50
44 40 31 28 31 29 21 20 18 21 29 29 28 21 19 18 18 15 16 17 20 20 20 17 12 9 7 8 11 16 21 27 32 36 40 42 43 41 41 46 49 49 50
48 42 34 30 30 19 15 18 17 28 33 27 24 23 20 21 18 18 20 23 22 23 19 15 11 7 7 9 13 18 23 29 33 37 40 42 42 42 44 48 49 49 48
50 46 37 29 30 26 22 21 22 33 34 24 23 22 23 21 22 23 25 25 27 22 17 13 9 6 7 10 15 20 25 29 33 37 40 42 42 42 47 48 47 48 39
54 45 38 36 26 32 25 21 33 30 26 25 25 27 25 24 25 25 26 29 25 20 15 11 7 6 8 11 16 23 26 29 33 36 40 42 43 44 49 49 48 46 38
52 45 42 39 35 30 25 29 37 31 29 28 29 30 28 27 27 29 30 29 24 18 14 9 6 7 9 12 18 23 26 29 32 36 40 43 44 45 50 50 49 48 39
51 52 40 36 39 30 21 36 34 31 30 32 31 32 30 31 33 29 32 27 21 17 12 7 6 7 9 14 18 23 26 29 32 36 40 43 45 46 50 51 51 51 40
51 36 38 39 32 24 34 35 34 34 36 35 34 33 33 34 33 33 31 25 20 16 11 7 7 9 11 14 19 22 26 29 31 35 40 42 45 47 50 53 52 51 45
40 38 37 32 25 35 38 37 29 30 32 33 36 34 34 36 33 35 29 23 19 14 9 7 8 11 12 15 19 22 26 27 30 33 38 42 45 47 49 52 53 52 50
39 25 30 26 34 45 41 35 30 32 32 34 28 28 34 33 33 33 27 22 18 12 9 8 8 10 12 16 19 22 24 26 29 32 36 40 44 46 48 50 53 52 52
37 27 23 14 48 44 42 36 34 29 25 38 33 34 34 31 34 31 25 21 17 12 8 8 7 10 13 16 19 21 24 25 27 30 34 38 42 45 46 49 51 53 52
31 29 21 46 43 38 34 34 33 27 38 38 38 40 36 32 34 29 24 20 15 11 9 7 8 10 13 16 18 21 23 24 26 29 32 35 39 42 45 46 48 51 52
26 21 40 29 38 32 27 31 33 37 39 36 38 40 35 31 33 28 23 19 14 10 8 7 8 11 13 16 18 20 22 24 25 27 30 33 36 39 42 45 46 48 50
27 28 49 37 35 33 27 34 36 35 33 35 39 38 34 29 31 28 23 19 14 10 7 6 8 10 13 15 17 19 21 23 25 26 28 30 33 37 40 43 45 46 48
28 33 36 37 35 30 28 33 32 30 31 32 38 37 34 30 31 28 23 19 14 10 7 6 8 11 14 16 17 18 20 22 24 26 27 29 31 34 37 40 43 45 47
24 43 31 32 36 27 34 33 30 29 30 32 37 34 32 29 30 28 23 19 14 9 6 7 10 12 14 16 17 18 19 21 24 26 28 29 29 31 34 36 39 41 44
28 36 40 35 32 27 30 30 30 29 29 31 36 33 31 28 29 28 23 20 15 9 5 6 9 13 14 15 17 18 19 20 22 25 28 29 30 31 32 33 35 37 40
Wind_Direction
250 246 249 246 248 250 246 232 232 233 247 226 245 213 219 236 238 245 243 238 252 264 274 283 284 282 275 278 277 282 278 291 301 306 308 306 298 290 289 290 289 287 287
252 248 256 231 229 226 221 229 229 243 243 236 250 252 242 254 249 244 231 241 255 265 277 276 282 266 279 286 291 278 290 302 303 308 314 316 313 306 301 300 296 292 289
248 254 253 223 229 219 216 227 234 231 220 232 240 227 233 224 252 235 198 227 258 267 268 270 259 252 270 294 302 295 303 311 317 320 322 324 323 321 317 311 304 299 295
245 253 261 259 214 212 208 211 194 230 231 231 216 208 214 233 229 199 218 240 252 258 262 262 232 243 265 312 310 308 327 340 351 352 344 332 326 322 317 309 303 298 292
239 243 252 228 203 200 201 198 207 231 245 218 217 203 218 224 203 197 237 231 242 252 246 225 219 219 295 358 346 3 25 9 1 350 343 335 327 322 316 309 306 300 295
231 236 246 265 193 176 187 208 217 240 254 206 181 191 216 236 173 216 223 219 233 237 216 207 177 140 92 66 70 42 18 8 358 347 337 330 324 319 315 312 307 301 300
218 226 236 254 193 179 192 202 209 250 218 185 190 202 217 182 199 213 206 192 213 189 180 162 138 113 106 96 68 34 11 356 347 340 338 333 327 323 317 314 313 311 307
202 212 221 236 202 176 197 205 199 224 187 193 195 206 175 183 209 205 181 189 182 169 155 142 122 118 114 92 53 19 3 355 350 347 343 338 333 327 323 322 320 315 311
195 198 206 220 195 180 209 210 215 205 213 200 206 185 172 199 199 183 182 176 165 162 145 130 124 124 111 76 31 10 3 358 356 352 347 343 338 333 330 328 324 319 313
195 195 202 215 183 178 188 209 216 207 200 202 182 168 188 188 183 168 165 158 162 150 138 132 130 125 96 49 24 10 4 3 360 355 350 348 344 338 334 330 325 320 319
190 193 198 212 177 180 199 215 219 205 196 177 165 180 179 177 168 164 162 155 152 143 138 135 135 117 78 37 21 10 6 3 359 357 355 352 346 342 338 334 331 329 325
187 192 193 200 181 191 193 199 207 188 173 163 178 174 173 173 166 162 158 152 147 143 140 141 133 108 57 33 17 8 5 2 0 0 358 355 351 349 345 340 339 336 334
185 191 191 195 183 189 198 209 197 178 168 175 171 169 170 167 165 158 155 150 148 143 142 141 127 90 49 24 11 5 3 2 2 3 2 0 359 355 351 350 348 346 347
184 186 195 178 184 185 198 205 185 166 172 170 172 169 160 157 156 155 153 151 147 144 144 137 114 66 35 16 9 6 3 4 4 5 6 7 5 1 359 359 357 358 359
181 181 182 185 186 189 197 189 172 165 167 171 169 165 157 157 157 156 156 151 147 145 144 129 96 53 30 19 15 11 7 7 7 9 11 12 10 7 7 7 6 7 7
170 169 169 179 185 185 190 174 160 167 168 166 166 161 158 158 156 158 154 151 147 147 141 120 80 48 27 22 21 14 10 9 10 12 14 17 16 14 14 13 13 14 14
168 166 171 174 177 176 178 158 169 170 169 165 166 160 161 160 158 158 156 152 149 149 136 105 69 41 34 27 19 13 11 11 13 15 18 20 20 19 19 19 20 20 21
161 158 162 170 170 170 158 156 165 171 166 168 164 163 164 161 161 159 156 152 150 145 125 98 65 50 40 24 17 13 13 13 15 18 22 24 24 23 23 23 24 25 26
150 145 161 169 171 158 160 160 166 165 169 168 159 165 163 162 162 160 156 152 150 139 124 99 67 44 31 23 18 14 13 14 17 20 23 26 28 27 28 28 28 29 29
156 145 154 181 167 159 166 166 165 169 184 157 163 163 165 165 165 163 157 153 147 136 121 96 68 42 27 20 18 15 14 15 18 22 24 27 30 30 31 32 33 33 33
145 158 178 157 152 163 165 169 177 186 170 160 163 164 166 167 167 164 158 154 145 133 116 95 65 38 24 18 17 15 14 16 19 23 25 27 31 33 33 34 34 36 37
156 163 164 165 166 164 172 172 183 183 165 164 166 166 167 166 169 166 160 154 145 132 121 92 62 39 24 18 18 15 15 18 20 22 24 27 31 33 34 35 36 36 38
169 161 155 163 166 168 166 175 166 165 165 169 167 166 167 170 171 167 163 156 148 132 114 90 53 36 23 21 20 14 16 19 21 22 22 25 29 32 34 35 37 38 39
168 178 162 162 158 167 177 166 163 165 166 169 170 170 169 171 172 171 168 161 154 134 107 81 50 38 29 25 21 15 19 22 24 25 23 24 27 30 33 35 37 39 41
177 173 161 168 182 178 166 166 166 166 167 170 175 173 172 172 173 174 171 167 161 144 111 71 49 38 32 29 25 19 24 28 29 29 28 27 27 29 31 34 36 38 40
197 184 168 169 168 167 169 169 169 170 171 173 176 176 175 175 176 177 175 172 168 159 127 71 46 40 36 34 30 24 28 32 34 35 35 35 34 33 33 34 37 39 40